[[{"header":{"parameterUnit":"m.s-1","parameterCategory":1,"la1":30.2991,"la2":30.254,"lo1":-89.0895,"lo2":-89.0444,"dy":0.0017,"dx":0.0017,"nx":28,"ny":28,"refTime":"2024-04-10T03:00:00:Z","depth":0,"parameterNumber":2,"parameterNumberName":"U-component_of_WINDS"},"data":[0,0,0,0,0,0,0,0,0,0,0,0,0,0,0,0,0,0,0,0,0,0,0,0,0,0,0,0,0,0,0,0,0,0,0,0,0,0,0,0,0,0,0,0,0,0,0,0,0,0,0,0,0,0,0,0,0,0,-8.2249,-8.225,0,-8.2312,-8.2312,-8.2313,-8.2212,-8.2209,-8.2205,-8.2202,-8.2263,-8.2267,-8.2272,0,0,0,0,0,0,0,0,0,0,0,0,0,-8.2041,-8.2046,-8.2249,-8.225,-8.2251,-8.2312,-8.2312,-8.2313,-8.2213,-8.2209,-8.2204,-8.2201,-8.2261,-8.2267,-8.2272,0,0,0,0,0,0,0,0,0,0,0,0,0,-8.2121,-8.2047,-8.2249,-8.2208,-8.2205,-8.2311,-8.2312,-8.2313,-8.2214,-8.2209,-8.2203,-8.2199,-8.2259,-8.2266,-8.2273,-8.2421,0,0,-8.2295,-8.2298,0,0,0,0,0,0,0,0,-8.2116,-8.2128,-8.2213,-8.2211,-8.2208,-8.2249,-8.2261,-8.2349,-8.2215,-8.221,-8.2202,-8.2196,-8.2262,-8.2269,-8.2292,-8.2424,-8.2427,-8.2296,-8.23,-8.2303,-8.2305,0,0,0,0,0,0,0,-8.2111,-8.2125,-8.2274,-8.2215,-8.2211,-8.2186,-8.2192,-8.2277,-8.2264,-8.221,-8.2203,-8.2212,-8.2259,-8.2285,-8.2292,-8.2428,-8.2296,-8.2302,-8.2307,-8.2309,-8.2686,-8.2691,0,0,0,0,0,0,-8.2111,-8.2121,-8.2272,-8.2275,-8.2148,-8.2194,-8.22,-8.2241,-8.2263,-8.2262,-8.2217,-8.2207,-8.2275,-8.2284,-8.2294,-8.2468,-8.2303,-8.231,-8.2314,-8.268,-8.2687,-8.2693,0,0,0,0,0,0,-8.2107,-8.2125,-8.2269,-8.2197,-8.2213,-8.2203,-8.225,-8.2245,-8.227,-8.2268,-8.2265,-8.2245,-8.2271,-8.2284,-8.2391,-8.2468,-8.2313,-8.232,-8.2673,-8.2682,-8.269,-8.2817,0,0,0,0,0,0,-8.2101,-8.2124,-8.218,-8.2199,-8.2217,-8.2365,-8.2255,-8.225,-8.2283,-8.2272,-8.2294,-8.2292,-8.2268,-8.2381,-8.2398,-8.2476,-8.2326,-8.2666,-8.2677,-8.2687,-8.2806,-8.2829,-8.2849,0,0,0,0,0,-8.2094,-8.2213,-8.2184,-8.2202,-8.2287,-8.237,-8.2381,-8.2351,-8.229,-8.2346,-8.2345,-8.2291,-8.2459,-8.2392,-8.2411,-8.2492,-8.2661,-8.2674,-8.2686,-8.2796,-8.2825,-8.2848,0,0,0,0,0,0,-8.2201,-8.2214,-8.2182,-8.231,-8.234,-8.2353,-8.2422,-8.2382,-8.2429,-8.2416,-8.2377,-8.2383,-8.2498,-8.2506,-8.2433,-8.2637,-8.2549,-8.2566,-8.2626,-8.2653,-8.2674,-8.2668,-8.2332,0,0,0,0,0,-8.2241,-8.2308,-8.2315,-8.2427,-8.2445,-8.2432,-8.2466,-8.2442,-8.2471,-8.2482,-8.2489,-8.2518,-8.2577,-8.2616,-8.2671,-8.2809,-8.2811,-8.2874,-8.2896,-8.2913,-8.2927,-8.3,-8.3028,-8.2735,-8.2735,-8.2734,0,0,-8.2321,-8.2336,-8.238,-8.245,-8.247,-8.2539,-8.2442,-8.252,-8.257,-8.2494,-8.2594,-8.2602,-8.2632,-8.2755,-8.281,-8.2765,-8.301,-8.293,-8.2944,-8.2947,-8.3016,-8.3044,-8.3069,-8.2743,-8.2742,-8.2741,0,0,-8.2501,-8.2521,-8.2617,-8.264,-8.2673,-8.2664,-8.2688,-8.2708,-8.271,-8.2812,-8.2756,-8.2816,-8.2919,-8.2943,-8.2968,-8.3164,-8.3116,-8.3183,-8.3293,-8.3365,-8.3388,-8.3408,-8.3476,-8.3501,-8.3198,-8.3198,-8.3198,0,-8.2596,-8.2699,-8.267,-8.2752,-8.2784,-8.2722,-8.2818,-8.2842,-8.289,-8.2913,-8.2865,-8.2993,-8.3009,-8.3137,-8.3185,-8.3209,-8.3233,-8.3177,-8.3387,-8.3407,-8.3425,-8.3489,-8.3515,-8.3206,-8.3205,-8.3204,-8.3203,0,-8.2813,-8.2886,-8.296,-8.301,-8.3051,-8.314,-8.3124,-8.3169,-8.3143,-8.314,-8.3245,-8.3263,-8.332,-8.335,-8.3324,-8.3475,-8.3446,-8.3394,-8.3303,-8.3462,-8.3521,-8.3545,-8.3217,-8.3214,-8.3212,-8.321,0,0,-8.3057,-8.3094,-8.3121,-8.3144,-8.3178,-8.3233,-8.3321,-8.3378,-8.3416,-8.3454,-8.3525,-8.3616,-8.3568,-8.3597,-8.3575,-8.3639,-8.3791,-8.3578,-8.3578,-8.3614,-8.3956,-8.3992,-8.4021,-8.3762,-8.3766,-8.377,-8.3952,0,-8.3235,-8.3385,-8.3364,-8.3508,-8.3574,-8.3519,-8.3595,-8.3624,-8.3625,-8.3681,-8.3682,-8.3746,-8.3679,-8.3696,-8.3758,-8.3759,-8.3858,-8.3746,-8.3825,-8.3828,-8.3814,-8.4052,-8.4091,-8.4261,-8.3976,-8.398,-8.3982,0,-8.346,-8.3508,-8.3659,-8.3685,-8.3712,-8.3781,-8.3832,-8.3888,-8.3921,-8.3917,-8.3953,-8.392,-8.4006,-8.392,-8.4038,-8.3963,-8.3995,-8.4001,-8.4007,-8.4009,-8.3911,-8.4057,-8.4315,-8.434,-8.4019,-8.4016,-8.4014,0,-8.362,-8.3722,-8.3826,-8.3847,-8.3881,-8.393,-8.3946,-8.3974,-8.4011,-8.4057,-8.408,-8.4136,-8.4165,-8.4209,-8.4192,-8.4131,-8.4314,-8.4226,-8.4311,-8.4312,-8.4347,-8.4344,-8.461,-8.4376,-8.4375,-8.4375,-8.4374,0,-8.3818,-8.3911,-8.3898,-8.3961,-8.4065,-8.4042,-8.4145,-8.4154,-8.4181,-8.4245,-8.4201,-8.4262,-8.4238,-8.4298,-8.4286,-8.4385,-8.44,-8.4398,-8.4392,-8.4399,-8.4399,-8.4415,-8.4401,-8.4382,-8.438,-8.4379,-8.4378,0,-8.401,-8.4005,-8.4114,-8.4139,-8.4147,-8.4222,-8.4243,-8.4302,-8.4302,-8.4384,-8.4401,-8.4401,-8.4469,-8.4458,-8.4533,-8.4525,-8.4648,-8.4631,-8.4637,-8.4631,-8.4716,-8.4707,-8.4998,-8.5034,-8.4781,-8.4783,-8.4785,0,-8.4134,-8.4205,-8.4239,-8.4279,-8.4299,-8.4365,-8.4403,-8.4385,-8.4426,-8.4471,-8.4525,-8.459,-8.464,-8.4752,-8.4757,-8.4815,-8.4796,-8.4894,-8.4804,-8.4808,-8.4793,-8.4787,-8.4794,-8.491,-8.4913,-8.4915,-8.4917,0,-8.4354,-8.4349,-8.4406,-8.4464,-8.4511,-8.4555,-8.4595,-8.463,-8.4615,-8.4664,-8.4734,-8.4774,-8.4853,-8.4917,-8.4972,-8.4988,-8.495,-8.4947,-8.4969,-8.4974,-8.4973,-8.4972,-8.4681,-8.4939,-8.4937,-8.4935,-8.4934,-8.4933,-8.4514,-8.4575,-8.4608,-8.4674,-8.4703,-8.4742,-8.4799,-8.4808,-8.4866,-8.4929,-8.4915,-8.4994,-8.5027,-8.5098,-8.512,-8.5182,-8.5145,-8.5178,-8.5185,-8.5193,-8.5201,-8.4969,-8.5192,-8.5191,-8.5191,-8.519,-8.519,0,-8.4729,-8.4749,-8.481,-8.4868,-8.492,-8.4884,-8.4927,-8.4972,-8.5043,-8.5078,-8.513,-8.5211,-8.5274,-8.5287,-8.5348,-8.5394,-8.5378,-8.541,-8.5404,-8.5408,-8.5232,-8.5205,-8.5422,-8.5422,-8.5422,-8.5422,-8.5422,-8.5422,-8.4846,-8.4947,-8.4947,-8.5062,-8.5082,-8.516,-8.5187,-8.5223,-8.5251,-8.5344,-8.5397,-8.5406,-8.5433,-8.5495,-8.5552,-8.5554,-8.5577,-8.5615,-8.561,-8.5444,-8.5421,-8.5398,-8.5373,-8.5621,-8.5622,-8.5781,-8.5782,-8.5783]},{"header":{"parameterUnit":"m.s-1","parameterCategory":1,"la1":30.2991,"la2":30.254,"lo1":-89.0895,"lo2":-89.0444,"dy":0.0017,"dx":0.0017,"nx":28,"ny":28,"refTime":"2024-04-10T03:00:00:Z","depth":0,"parameterNumber":3,"parameterNumberName":"V-component_of_WINDS"},"data":[0,0,0,0,0,0,0,0,0,0,0,0,0,0,0,0,0,0,0,0,0,0,0,0,0,0,0,0,0,0,0,0,0,0,0,0,0,0,0,0,0,0,0,0,0,0,0,0,0,0,0,0,0,0,0,0,0,0,3.9479,3.9479,0,3.9544,3.9545,3.9546,3.9573,3.9573,3.9573,3.9573,3.9635,3.9637,3.9639,0,0,0,0,0,0,0,0,0,0,0,0,0,3.9374,3.9376,3.9479,3.948,3.948,3.9544,3.9545,3.9546,3.9573,3.9573,3.9573,3.9573,3.9635,3.9637,3.9639,0,0,0,0,0,0,0,0,0,0,0,0,0,3.9427,3.9377,3.9479,3.9502,3.9505,3.9544,3.9545,3.9546,3.9573,3.9573,3.9573,3.9573,3.9634,3.9636,3.9639,3.9659,0,0,3.9647,3.9648,0,0,0,0,0,0,0,0,3.9424,3.9431,3.9498,3.95,3.9503,3.9551,3.9531,3.9584,3.9573,3.9547,3.9573,3.9573,3.9607,3.9612,3.9624,3.9662,3.9664,3.9647,3.9649,3.965,3.9651,0,0,0,0,0,0,0,3.9421,3.9429,3.9504,3.9498,3.9502,3.9508,3.9515,3.9541,3.9577,3.9549,3.9552,3.9559,3.9608,3.9622,3.9626,3.9665,3.9647,3.965,3.9651,3.9652,3.9724,3.9724,0,0,0,0,0,0,3.9414,3.9425,3.9502,3.9506,3.9463,3.951,3.9518,3.9536,3.9577,3.9583,3.9559,3.956,3.9617,3.9623,3.9628,3.9655,3.965,3.9653,3.9654,3.9724,3.9724,3.9724,0,0,0,0,0,0,3.9411,3.942,3.95,3.9467,3.9477,3.9512,3.9531,3.9537,3.955,3.9584,3.959,3.9567,3.9617,3.9624,3.9652,3.9658,3.9654,3.9656,3.9723,3.9724,3.9724,3.9708,0,0,0,0,0,0,3.9408,3.9419,3.9428,3.9467,3.9479,3.9523,3.9532,3.9538,3.9555,3.9557,3.9593,3.9598,3.9618,3.9648,3.9654,3.9661,3.9658,3.9723,3.9723,3.9724,3.9708,3.9708,3.9708,0,0,0,0,0,3.9404,3.9419,3.9428,3.9437,3.949,3.9523,3.953,3.9554,3.9556,3.9564,3.9586,3.9597,3.9656,3.965,3.9658,3.9666,3.9723,3.9723,3.9724,3.9709,3.9708,3.9708,0,0,0,0,0,0,3.9377,3.9424,3.9435,3.9463,3.9489,3.9528,3.9539,3.9552,3.9577,3.9578,3.9604,3.9612,3.9637,3.9654,3.9647,3.9688,3.969,3.9693,3.9676,3.9676,3.9676,3.9671,3.966,0,0,0,0,0,3.9375,3.9399,3.9438,3.9459,3.9472,3.9503,3.9519,3.9535,3.9563,3.9573,3.9597,3.9623,3.9647,3.9662,3.9687,3.9711,3.972,3.9721,3.972,3.972,3.9721,3.9737,3.9738,3.9727,3.9727,3.9727,0,0,3.9369,3.9398,3.9411,3.9454,3.9477,3.9501,3.9512,3.9536,3.9554,3.9576,3.9604,3.9623,3.9653,3.968,3.9693,3.9695,3.9727,3.9721,3.972,3.9722,3.9738,3.9739,3.974,3.9727,3.9727,3.9727,0,0,3.9371,3.9396,3.9417,3.944,3.9475,3.9496,3.9501,3.9539,3.9553,3.9582,3.9599,3.962,3.9661,3.9683,3.9699,3.9713,3.9724,3.972,3.9718,3.9733,3.9734,3.9735,3.9741,3.9742,3.9721,3.9721,3.9721,0,3.9359,3.9398,3.9425,3.9449,3.9468,3.9492,3.9513,3.9534,3.9574,3.9586,3.9588,3.9642,3.9664,3.9696,3.97,3.9712,3.9719,3.9715,3.9732,3.9733,3.9735,3.974,3.9742,3.972,3.9721,3.9721,3.9721,0,3.9382,3.9408,3.9421,3.9462,3.9482,3.9504,3.9535,3.9552,3.9567,3.9588,3.9617,3.9645,3.9676,3.9685,3.9699,3.972,3.9721,3.9727,3.973,3.9735,3.974,3.9743,3.9719,3.972,3.972,3.972,0,0,3.9366,3.9425,3.9429,3.9449,3.9491,3.9511,3.9535,3.9568,3.9582,3.9609,3.963,3.9666,3.9673,3.9691,3.9708,3.9721,3.9732,3.9726,3.9728,3.9727,3.9758,3.9753,3.9755,3.974,3.974,3.9741,3.9756,0,3.9375,3.9421,3.9447,3.9482,3.9507,3.9531,3.9552,3.9579,3.96,3.9623,3.9646,3.9671,3.9678,3.969,3.9704,3.9727,3.9738,3.9727,3.9759,3.9759,3.975,3.9758,3.9752,3.9765,3.9758,3.9758,3.9759,0,3.939,3.942,3.9458,3.9499,3.951,3.9529,3.9562,3.9584,3.9616,3.963,3.9653,3.967,3.9696,3.9697,3.9734,3.9725,3.974,3.9754,3.9755,3.9758,3.9759,3.9762,3.9769,3.9771,3.9762,3.9762,3.9762,0,3.9376,3.9426,3.9455,3.9471,3.952,3.9532,3.9553,3.9585,3.9603,3.9632,3.9645,3.9675,3.9691,3.9714,3.9739,3.9738,3.9773,3.9777,3.9785,3.9785,3.9791,3.979,3.9801,3.98,3.98,3.98,3.98,0,3.9382,3.9404,3.945,3.9468,3.9494,3.9524,3.9549,3.9571,3.96,3.9622,3.9644,3.9664,3.9696,3.972,3.974,3.9768,3.9775,3.9786,3.9791,3.9784,3.9783,3.9794,3.9794,3.9801,3.9801,3.9801,3.9801,0,3.9371,3.9402,3.9436,3.948,3.9492,3.9509,3.9547,3.9565,3.9588,3.9616,3.9624,3.9659,3.9689,3.9717,3.9756,3.9769,3.9797,3.9803,3.9787,3.979,3.9797,3.9796,3.9815,3.982,3.9816,3.9816,3.9816,0,3.9373,3.9391,3.9438,3.9456,3.9477,3.9505,3.9525,3.9556,3.9576,3.9615,3.9628,3.9661,3.9688,3.9734,3.9762,3.9793,3.98,3.9805,3.9804,3.9798,3.98,3.9799,3.9801,3.9804,3.9804,3.9804,3.9804,0,3.9373,3.9389,3.9418,3.9453,3.9477,3.9506,3.9535,3.9548,3.9584,3.9606,3.9638,3.9659,3.9701,3.9732,3.9766,3.9786,3.9801,3.9804,3.9808,3.9801,3.9791,3.9797,3.9786,3.9803,3.9803,3.9803,3.9803,3.9803,3.9369,3.9387,3.9424,3.9456,3.9482,3.9509,3.953,3.9556,3.9584,3.9622,3.9639,3.9671,3.9704,3.9752,3.9772,3.9797,3.98,3.9805,3.9807,3.9807,3.9807,3.9787,3.9803,3.9803,3.9803,3.9804,3.9804,0,3.9371,3.9397,3.9426,3.9468,3.9494,3.9508,3.9542,3.9562,3.9591,3.9621,3.9649,3.9686,3.9718,3.975,3.9783,3.9797,3.9804,3.9804,3.9803,3.9808,3.9801,3.9795,3.9798,3.9798,3.9798,3.9798,3.9798,3.9798,3.9375,3.9407,3.9427,3.9472,3.9497,3.9532,3.955,3.9575,3.96,3.9642,3.9669,3.969,3.9722,3.9757,3.9787,3.9795,3.9806,3.9804,3.9815,3.9808,3.9808,3.9808,3.9803,3.9807,3.9807,3.9819,3.9819,3.9819]}]]